This is the latest recevied weather packets stored in our database for station/object W0PE-1. If no packets are shown the sender has not sent any weather packets the latest 10 day(s).
| Time | Temp. | Humidity | Pressure | Rain* | Wind** | Luminosity | Snow |
|---|---|---|---|---|---|---|---|
| 1788581703 | 21.67° C | 70% | 1011.9 hPa | 0 mm | - | - | - |
| 1788580803 | 21.67° C | 69% | 1011.9 hPa | 0 mm | - | - | - |
| 1788579907 | 22.22° C | 68% | 1011.7 hPa | 0 mm | - | - | - |
| 1788579002 | 22.22° C | 67% | 1011.5 hPa | 0 mm | - | - | - |
| 1788578101 | 22.78° C | 66% | 1011.4 hPa | 0 mm | - | - | - |
| 1788577202 | 22.78° C | 64% | 1011.1 hPa | 0 mm | - | - | - |
| 1788576302 | 23.33° C | 62% | 1010.9 hPa | 0 mm | - | - | - |
| 1788575461 | 23.89° C | 61% | 1010.9 hPa | 0 mm | - | - | - |
| 1788574560 | 23.89° C | 59% | 1011.1 hPa | 0 mm | - | - | - |
| 1788573667 | 25° C | 57% | 1011 hPa | 0 mm | - | - | - |
| 1788572758 | 25° C | 56% | 1011 hPa | 0 mm | - | - | - |
| 1788571857 | 25.56° C | 54% | 1011 hPa | 0 mm | - | - | - |
| 1788570957 | 25.56° C | 53% | 1011.1 hPa | 0 mm | - | - | - |
| 1788570062 | 26.11° C | 52% | 1011.1 hPa | 0 mm | - | - | - |
| 1788569171 | 26.11° C | 53% | 1011.1 hPa | 0 mm | - | - | - |
| 1788568255 | 26.11° C | 54% | 1011.1 hPa | 0 mm | - | - | - |
| 1788567355 | 26.11° C | 54% | 1011.1 hPa | 0 mm | - | - | - |
| 1788566453 | 26.67° C | 54% | 1011.1 hPa | 0 mm | - | - | - |
| 1788565552 | 26.67° C | 54% | 1011.2 hPa | 0 mm | - | - | - |
| 1788564657 | 27.22° C | 54% | 1011.1 hPa | 0 mm | - | - | - |
| 1788563752 | 27.78° C | 54% | 1010.9 hPa | 0 mm | - | - | - |
| 1788562849 | 27.78° C | 54% | 1011 hPa | 0 mm | - | - | - |
| 1788561951 | 27.78° C | 54% | 1011.1 hPa | 0 mm | - | - | - |
| 1788561048 | 28.33° C | 54% | 1011.1 hPa | 0 mm | - | - | - |
| 1788560152 | 28.89° C | 51% | 1011.2 hPa | 0 mm | - | - | - |
* Rain latest hour (hover to see other rain measurements)
** Current wind speed in m/s (hover to see current wind gust speed)